Waarnemingen

Advertentie
Mijn weer
Dunkeswell Aerodrome, Groot Brittannië (3840): temperatuur & dauwpunt: 16.07.2018 23:00:00 - 22.07.2018 23:00:00 (BST)Dunkeswell Aerodrome, Groot Brittannië (3840): temperatuur -20cm & temperatuur -100cm: 16.07.2018 23:00:00 - 22.07.2018 23:00:00 (BST)Dunkeswell Aerodrome, Groot Brittannië (3840): windsnelheid: 16.07.2018 23:00:00 - 22.07.2018 23:00:00 (BST)Dunkeswell Aerodrome, Groot Brittannië (3840): windrichting: 16.07.2018 23:00:00 - 22.07.2018 23:00:00 (BST)Dunkeswell Aerodrome, Groot Brittannië (3840): luchtdruk: 16.07.2018 23:00:00 - 22.07.2018 23:00:00 (BST)Dunkeswell Aerodrome, Groot Brittannië (3840): zicht: 16.07.2018 23:00:00 - 22.07.2018 23:00:00 (BST)Dunkeswell Aerodrome, Groot Brittannië (3840): neerslag: 16.07.2018 23:00:00 - 22.07.2018 23:00:00 (BST)
Datum & Tijd tt [°C] td [°C] tt -20cm [°C] tt -100cm [°C] ff [km/u] ff [kn] dd ppp [hPa] vv [km] rr [mm]
22.07.2018 23:00:00 - - - - - - - - - -
22.07.2018 22:00:00 18,5 14,1 - - 8 4 W 1017,8 45 0,0
22.07.2018 21:00:00 20,7 13,5 - - 9 5 WNW 1017,1 50 0,0
22.07.2018 20:00:00 22,8 14,0 - - 13 7 NW 1016,6 45 0,0
22.07.2018 19:00:00 24,7 14,5 - - 11 6 W 1016,0 35 0,0
22.07.2018 18:00:00 25,1 15,0 - - 13 7 ZW 1016,0 26 0,0
22.07.2018 17:00:00 24,4 14,6 - - 13 7 ZW 1016,1 30 0,0
22.07.2018 16:00:00 24,6 14,4 - - 11 6 W 1016,4 35 0,0
22.07.2018 15:00:00 25,7 15,1 - - 11 6 W 1016,4 30 0,0
22.07.2018 14:00:00 25,2 13,7 - - 8 4 NW 1016,4 30 0,0
22.07.2018 13:00:00 23,7 12,8 - - 9 5 W 1016,6 22 0,0
22.07.2018 12:00:00 23,2 13,0 - - 9 5 NW 1016,8 30 0,0
22.07.2018 11:00:00 21,4 12,5 - - 9 5 NW 1017,2 50 0,0
22.07.2018 10:00:00 19,5 13,5 20,4 18,4 9 5 NNW 1017,3 50 0,0
22.07.2018 09:00:00 18,4 13,1 - - 9 5 NW 1017,2 21 0,0
22.07.2018 08:00:00 16,5 13,2 - - 11 6 NW 1017,1 18 0,0
22.07.2018 07:00:00 14,2 12,7 - - 8 4 NW 1017,2 15 0,0
22.07.2018 06:00:00 14,3 12,8 - - 5 3 WNW 1016,9 18 0,0
22.07.2018 05:00:00 14,3 12,9 - - 5 3 W 1016,6 20 0,0
22.07.2018 04:00:00 14,8 13,5 - - 5 3 W 1016,6 17 0,0
22.07.2018 03:00:00 15,2 13,6 - - 2 1 W 1016,8 20 0,0
22.07.2018 02:00:00 15,2 13,8 - - 5 3 W 1017,0 17 0,0
22.07.2018 01:00:00 15,8 14,1 - - 5 3 WNW 1017,1 22 0,0
22.07.2018 00:00:00 16,6 14,1 - - 8 4 W 1016,7 45 0,0
21.07.2018 23:00:00 17,4 14,4 - - 5 3 W 1016,6 50 0,0
21.07.2018 22:00:00 18,0 15,2 - - 9 5 ZW 1016,4 35 0,0
21.07.2018 21:00:00 18,9 15,0 - - 9 5 ZW 1016,0 35 0,0
21.07.2018 20:00:00 19,9 14,2 - - 13 7 ZW 1015,5 50 0,0
21.07.2018 19:00:00 19,9 14,8 - - 16 9 ZZW 1015,2 35 0,0
21.07.2018 18:00:00 20,5 15,5 - - 16 9 ZZW 1015,2 27 0,0
21.07.2018 17:00:00 20,8 15,2 - - 2 1 WZW 1015,2 45 0,0
21.07.2018 16:00:00 21,7 15,1 - - 8 4 ZZW 1014,9 30 0,0
21.07.2018 15:00:00 20,9 15,2 - - 8 4 W 1014,9 35 0,0
21.07.2018 14:00:00 19,8 15,4 - - 8 4 W 1014,8 35 0,0
21.07.2018 13:00:00 19,9 16,1 - - 5 3 WNW 1014,8 30 0,0
21.07.2018 12:00:00 18,7 16,0 - - 9 5 ZW 1014,8 30 0,0
21.07.2018 11:00:00 17,7 15,7 - - 5 3 ZZW 1014,7 35 0,0
21.07.2018 10:00:00 16,9 15,3 20,4 18,2 5 3 WZW 1014,7 40 0,0
21.07.2018 09:00:00 15,4 15,1 - - 4 2 ZO 1014,6 4,3 0,0
21.07.2018 08:00:00 14,6 14,5 - - 8 4 OZO 1014,1 1,8 0,0
21.07.2018 07:00:00 14,2 14,1 - - 5 3 ZZO 1013,8 2,6 0,0
21.07.2018 06:00:00 14,0 13,9 - - 9 5 OZO 1013,5 2,2 0,4
21.07.2018 05:00:00 14,0 13,8 - - 9 5 ZO 1013,3 2,8 0,8
21.07.2018 04:00:00 13,8 13,5 - - 9 5 ZO 1013,4 3,4 0,8
21.07.2018 03:00:00 15,0 14,8 - - 4 2 Z 1013,2 2,2 0,6
21.07.2018 02:00:00 14,9 14,6 - - 2 1 ZZO 1013,4 5 0,2
21.07.2018 01:00:00 14,8 14,5 - - 0 0 N 1013,8 3,7 0,6
21.07.2018 00:00:00 14,5 14,1 - - 4 2 NNW 1014,2 9 1,8
20.07.2018 23:00:00 14,2 13,5 - - 5 3 WNW 1014,2 6 1,4
20.07.2018 22:00:00 14,4 12,4 - - 8 4 NW 1014,1 15 0,4
20.07.2018 21:00:00 15,5 12,1 - - 13 7 NW 1014,0 8 0,2
20.07.2018 20:00:00 18,0 10,8 - - 13 7 WNW 1013,6 35 0,0
20.07.2018 19:00:00 19,4 11,5 - - 16 9 NW 1013,4 45 0,0
20.07.2018 18:00:00 22,4 11,0 - - 15 8 WNW 1013,0 30 0,0
20.07.2018 17:00:00 23,8 9,8 - - 15 8 WNW 1012,9 50 0,0
20.07.2018 16:00:00 23,8 9,3 - - 16 9 WZW 1013,1 40 0,0
20.07.2018 15:00:00 23,4 9,8 - - 9 5 W 1013,4 29 0,0
20.07.2018 14:00:00 23,6 10,2 - - 15 8 WNW 1013,7 30 0,0
20.07.2018 13:00:00 22,6 9,7 - - 13 7 W 1014,2 24 0,0
20.07.2018 12:00:00 22,5 10,6 - - 8 4 NNW 1014,7 35 0,0
20.07.2018 11:00:00 20,9 10,4 - - 9 5 N 1015,1 30 0,0
20.07.2018 10:00:00 18,6 10,8 19,7 18,4 9 5 N 1015,5 35 0,0
20.07.2018 09:00:00 17,5 10,8 - - 9 5 NNW 1015,9 27 0,0
20.07.2018 08:00:00 14,8 11,0 - - 5 3 NW 1016,0 35 0,0
20.07.2018 07:00:00 12,6 10,1 - - 5 3 NW 1016,3 45 0,0
20.07.2018 06:00:00 11,8 9,3 - - 4 2 NNW 1016,5 35 0,0
20.07.2018 05:00:00 11,9 9,1 - - 5 3 NW 1016,7 40 0,0
20.07.2018 04:00:00 13,0 9,1 - - 8 4 NNW 1016,8 50 0,0
20.07.2018 03:00:00 13,6 9,3 - - 5 3 NW 1017,2 50 0,0
20.07.2018 02:00:00 13,4 8,8 - - 8 4 NW 1017,5 50 0,0
20.07.2018 01:00:00 13,8 8,7 - - 5 3 NW 1017,8 50 0,0
20.07.2018 00:00:00 14,2 9,7 - - 8 4 WNW 1018,1 50 0,0
19.07.2018 23:00:00 15,1 9,8 - - 5 3 WNW 1018,1 45 0,0
19.07.2018 22:00:00 16,3 10,1 - - 5 3 NW 1018,0 50 0,0
19.07.2018 21:00:00 18,4 10,6 - - 8 4 NNW 1017,6 45 0,0
19.07.2018 20:00:00 20,4 10,8 - - 11 6 N 1017,3 40 0,0
19.07.2018 19:00:00 22,0 10,7 - - 5 3 NO 1017,1 30 0,0
19.07.2018 18:00:00 23,4 11,4 - - 11 6 Z 1017,0 35 0,0
19.07.2018 17:00:00 21,9 12,0 - - 9 5 NO 1017,2 40 0,0
19.07.2018 16:00:00 23,0 10,8 - - 0 0 N 1017,5 30 0,0
19.07.2018 15:00:00 23,1 12,1 - - 8 4 OZO 1017,8 35 0,0
19.07.2018 14:00:00 21,9 11,5 - - 8 4 NNW 1018,2 35 0,0
19.07.2018 13:00:00 22,2 11,9 - - 5 3 ONO 1018,5 22 0,0
19.07.2018 12:00:00 20,5 10,5 - - 8 4 ONO 1018,9 35 0,0
19.07.2018 11:00:00 20,4 11,5 - - 8 4 NNO 1019,2 20 0,0
19.07.2018 10:00:00 17,9 11,1 19,7 18,5 8 4 N 1019,6 24 0,0
19.07.2018 09:00:00 16,0 11,2 - - 9 5 NNO 1019,8 40 0,0
19.07.2018 08:00:00 14,6 11,1 - - 4 2 NNO 1019,9 35 0,0
19.07.2018 07:00:00 13,1 9,5 - - 2 1 NO 1019,9 40 0,0
19.07.2018 06:00:00 10,9 7,4 - - 0 0 N 1020,2 50 0,0
19.07.2018 05:00:00 11,2 7,5 - - 8 4 NW 1020,2 50 0,0
19.07.2018 04:00:00 11,0 7,2 - - 0 0 N 1020,4 50 0,0
19.07.2018 03:00:00 11,5 7,2 - - 0 0 N 1020,3 45 0,0
19.07.2018 02:00:00 12,3 7,7 - - 2 1 N 1020,4 50 0,0
19.07.2018 01:00:00 11,8 8,0 - - 5 3 NNW 1020,2 45 0,0
19.07.2018 00:00:00 13,7 9,0 - - 5 3 NNW 1020,0 50 0,0
18.07.2018 23:00:00 15,1 10,2 - - 5 3 N 1019,8 40 0,0
18.07.2018 22:00:00 16,1 11,6 - - 8 4 N 1019,7 35 0,0
18.07.2018 21:00:00 17,4 12,7 - - 5 3 N 1019,2 35 0,0
18.07.2018 20:00:00 17,9 13,1 - - 5 3 WZW 1019,1 35 0,0
18.07.2018 19:00:00 18,4 12,8 - - 9 5 ZZW 1018,9 30 0,0
18.07.2018 18:00:00 19,0 12,7 - - 11 6 ZW 1018,7 30 0,0
18.07.2018 17:00:00 19,2 11,9 - - 13 7 ZW 1018,7 40 0,0
18.07.2018 16:00:00 18,8 12,6 - - 16 9 ZZW 1018,7 12 0,0
18.07.2018 15:00:00 18,6 12,1 - - 9 5 ZZW 1018,7 50 0,0
18.07.2018 14:00:00 19,1 12,2 - - 13 7 ZZW 1018,6 35 0,0
18.07.2018 13:00:00 17,8 13,1 - - 15 8 Z 1018,7 35 0,0
18.07.2018 12:00:00 18,8 12,8 - - 13 7 Z 1018,6 30 0,0
18.07.2018 11:00:00 17,9 13,2 - - 15 8 ZZW 1018,7 40 0,0
18.07.2018 10:00:00 18,3 12,8 19,9 18,7 13 7 ZZW 1018,5 29 0,0
18.07.2018 09:00:00 17,2 13,2 - - 13 7 ZW 1018,6 50 0,0
18.07.2018 08:00:00 15,9 12,2 - - 13 7 ZZW 1018,4 35 0,0
18.07.2018 07:00:00 14,8 12,2 - - 8 4 Z 1018,2 30 0,0
18.07.2018 06:00:00 13,8 12,1 - - 5 3 ZZW 1018,1 40 0,0
18.07.2018 05:00:00 13,6 11,9 - - 8 4 ZZW 1017,9 35 0,0
18.07.2018 04:00:00 13,5 12,2 - - 5 3 Z 1017,9 35 0,0
18.07.2018 03:00:00 12,9 11,6 - - 4 2 ZZO 1018,2 22 0,0
18.07.2018 02:00:00 13,4 11,4 - - 0 0 N 1018,2 27 0,0
18.07.2018 01:00:00 14,3 11,6 - - 0 0 N 1018,2 50 0,0
18.07.2018 00:00:00 15,1 11,9 - - 5 3 WZW 1018,1 45 0,0
17.07.2018 23:00:00 15,3 11,8 - - 8 4 ZW 1018,2 50 0,0
17.07.2018 22:00:00 15,6 11,6 - - 9 5 ZW 1017,9 50 0,0
17.07.2018 21:00:00 16,7 11,4 - - 15 8 WZW 1017,4 50 0,0
17.07.2018 20:00:00 17,7 10,4 - - 11 6 W 1017,2 50 0,0
17.07.2018 19:00:00 17,7 12,2 - - 8 4 Z 1016,9 35 0,0
17.07.2018 18:00:00 17,1 11,5 - - 5 3 Z 1017,0 35 0,0
17.07.2018 17:00:00 18,2 10,5 - - 11 6 ZZW 1016,9 30 0,0
17.07.2018 16:00:00 17,7 10,5 - - 13 7 WZW 1017,1 40 0,0
17.07.2018 15:00:00 18,5 10,5 - - 11 6 ZW 1017,2 45 0,0
17.07.2018 14:00:00 17,9 11,4 - - 9 5 WNW 1017,2 45 0,0
17.07.2018 13:00:00 17,7 10,8 - - 11 6 WNW 1017,3 40 0,0
17.07.2018 12:00:00 16,6 11,1 - - 13 7 W 1017,5 40 0,0
17.07.2018 11:00:00 17,3 10,2 - - 11 6 WNW 1017,1 6 0,0
17.07.2018 10:00:00 16,7 11,1 20,5 18,7 11 6 W 1016,9 45 0,0
17.07.2018 09:00:00 16,3 11,7 - - 18 10 WZW 1016,7 45 0,0
17.07.2018 08:00:00 14,5 11,9 - - 11 6 ZW 1017,0 35 0,0
17.07.2018 07:00:00 12,8 11,5 - - 5 3 ZZW 1016,9 30 0,0
17.07.2018 06:00:00 12,9 11,3 - - 8 4 W 1016,6 21 0,0
17.07.2018 05:00:00 12,3 11,1 - - 11 6 WZW 1016,3 30 0,0
17.07.2018 04:00:00 12,8 11,1 - - 8 4 WZW 1016,4 40 0,0
17.07.2018 03:00:00 11,9 10,5 - - 11 6 WZW 1016,6 30 0,0
17.07.2018 02:00:00 12,9 11,2 - - 11 6 W 1016,5 40 0,0
17.07.2018 01:00:00 12,9 10,9 - - 9 5 W 1016,8 45 0,0
17.07.2018 00:00:00 13,4 10,7 - - 9 5 W 1016,7 45 0,0
16.07.2018 23:00:00 13,5 10,2 - - 8 4 W 1016,5 45 0,0

tt = temperatuur
td = dauwpunt
tt -20cm = temperatuur -20cm
tt -100cm = temperatuur -100cm
ff = windsnelheid
dd = windrichting
ppp = luchtdruk
vv = zicht
rr = neerslag

Weerstations in de omgeving